This is the latest recevied weather packets stored in our database for station/object KI6AOK. If no packets are shown the sender has not sent any weather packets the latest 10 day(s).
| Time | Temp. | Humidity | Pressure | Rain* | Wind** | Luminosity | Snow |
|---|---|---|---|---|---|---|---|
| 1777842251 | 21.11° C | 55% | 1013.6 hPa | 0 mm | - | 405 W/m² | - |
| 1777841950 | 20.56° C | 55% | 1013.6 hPa | 0 mm | - | 618 W/m² | - |
| 1777841648 | 21.11° C | 55% | 1013.7 hPa | 0 mm | - | 503 W/m² | - |
| 1777841344 | 20.56° C | 56% | 1013.6 hPa | 0 mm | - | 1109 W/m² | - |
| 1777841041 | 20° C | 56% | 1013.7 hPa | 0 mm | - | 992 W/m² | - |
| 1777840738 | 20.56° C | 55% | 1013.7 hPa | 0 mm | - | 673 W/m² | - |
| 1777840436 | 20° C | 56% | 1013.7 hPa | 0 mm | - | 473 W/m² | - |
| 1777840132 | 19.44° C | 58% | 1013.9 hPa | 0 mm | - | 548 W/m² | - |
| 1777839831 | 19.44° C | 57% | 1013.9 hPa | 0 mm | - | 388 W/m² | - |
| 1777839529 | 19.44° C | 57% | 1013.7 hPa | 0 mm | - | 364 W/m² | - |
| 1777839225 | 19.44° C | 57% | 1013.8 hPa | 0 mm | - | 337 W/m² | - |
| 1777838923 | 20° C | 56% | 1013.8 hPa | 0 mm | - | 281 W/m² | - |
| 1777838618 | 20° C | 57% | 1013.8 hPa | 0 mm | - | 345 W/m² | - |
| 1777838316 | 20.56° C | 55% | 1013.8 hPa | 0 mm | - | 395 W/m² | - |
| 1777838012 | 21.11° C | 54% | 1014 hPa | 0 mm | - | 546 W/m² | - |
| 1777837710 | 21.11° C | 55% | 1013.8 hPa | 0 mm | - | 749 W/m² | - |
| 1777837406 | 20° C | 57% | 1013.9 hPa | 0 mm | - | 626 W/m² | - |
| 1777837102 | 20° C | 56% | 1014.1 hPa | 0 mm | - | 755 W/m² | - |
| 1777836798 | 19.44° C | 59% | 1014 hPa | 0 mm | - | 675 W/m² | - |
| 1777836494 | 18.33° C | 61% | 1013.9 hPa | 0 mm | - | 1241 W/m² | - |
| 1777836189 | 18.33° C | 62% | 1014.2 hPa | 0 mm | - | 451 W/m² | - |
| 1777835886 | 18.33° C | 63% | 1014.1 hPa | 0 mm | - | 573 W/m² | - |
| 1777835583 | 17.78° C | 64% | 1014.1 hPa | 0 mm | - | 305 W/m² | - |
| 1777835280 | 17.78° C | 65% | 1014.3 hPa | 0 mm | - | 236 W/m² | - |
| 1777834977 | 17.78° C | 66% | 1014.3 hPa | 0 mm | - | 230 W/m² | - |
* Rain latest hour (hover to see other rain measurements)
** Current wind speed in m/s (hover to see current wind gust speed)